Hobart, OK

4:40 AM CST on November 25, 2017 (GMT -0600)
Hobart Municipal

Weather History for KHBR - March, 2014

Change the Weather History Date:

Wednesday, March 19, 2014

  Actual Average Record
Temperature  
Mean Temperature 46 °F -  
Max Temperature 60 °F 59 °F 86 °F (2017)
Min Temperature 32 °F 37 °F 28 °F (2016)
Degree Days  
Heating Degree Days 20    
Moisture  
Dew Point 27 °F    
Average Humidity 51    
Maximum Humidity 85    
Minimum Humidity 24    
Precipitation  
Precipitation 0.00 in - - ()
Sea Level Pressure  
Sea Level Pressure 30.18 in    
Wind  
Wind Speed 14 mph (North)    
Max Wind Speed 24 mph    
Max Gust Speed 33 mph    
Visibility 10 miles    
Events      
Averages and records for this station are not official NWS values.
T = Trace of Precipitation, MM = Missing Value Source: NWS Daily Summary

Daily Weather History Graph

Daily Weather History Graph

Search for Another Location

Airport or City:

Trip Planner

Search our weather history database for the weather conditions in past years. The results will help you decide how hot, cold, wet, or windy it might be!

Date:

Astronomy

Mar. 19, 2014 Rise Set
Actual Time 7:41 AM CDT 7:47 PM CDT
Civil Twilight 7:15 AM CDT 8:12 PM CDT
Nautical Twilight 6:46 AM CDT 8:41 PM CDT
Astronomical Twilight 6:16 AM CDT 9:11 PM CDT
Moon 10:58 PM CDT (3/19) 9:15 AM CDT (3/19)
Length of Visible Light 12h 56m
Length of Day
12h 05m
Waning Gibbous, 91% of the Moon is Illuminated
Mar 19
Waning Gibbous
Mar 23
Last Quarter
Mar 30
New
Apr 7
First Quarter
Apr 15
Full

Hourly Weather History & Observations

Time (CDT) Temp. Windchill Dew Point Humidity Pressure Visibility Wind Dir Wind Speed Gust Speed Precip Events Conditions
12:53 AM 42.1 °F 32.6 °F 28.0 °F 58% 30.01 in 10.0 mi North 23.0 mph 32.2 mph N/A   Clear
1:53 AM 42.1 °F 32.3 °F 28.0 °F 58% 29.99 in 10.0 mi North 24.2 mph 33.4 mph N/A   Clear
2:53 AM 41.0 °F 32.5 °F 28.9 °F 62% 30.02 in 10.0 mi North 17.3 mph 26.5 mph N/A   Clear
3:53 AM 39.0 °F 33.4 °F 28.9 °F 67% 30.06 in 10.0 mi NNW 8.1 mph - N/A   Clear
4:53 AM 37.9 °F 30.5 °F 28.9 °F 70% 30.08 in 10.0 mi NNW 11.5 mph - N/A   Clear
5:53 AM 36.0 °F 28.5 °F 28.9 °F 76% 30.11 in 10.0 mi NNW 10.4 mph - N/A   Partly Cloudy
6:53 AM 34.0 °F - 28.0 °F 79% 30.15 in 10.0 mi Calm Calm - N/A   Clear
7:53 AM 32.0 °F 24.8 °F 28.0 °F 85% 30.20 in 10.0 mi NW 8.1 mph - N/A   Clear
8:53 AM 37.9 °F 31.5 °F 30.0 °F 73% 30.24 in 10.0 mi NNW 9.2 mph - N/A   Clear
9:53 AM 45.0 °F 37.6 °F 30.9 °F 58% 30.26 in 10.0 mi North 17.3 mph - N/A   Clear
10:53 AM 48.0 °F - 28.9 °F 48% 30.28 in 10.0 mi NNE 16.1 mph - N/A   Clear
11:53 AM 51.1 °F - 28.9 °F 43% 30.29 in 10.0 mi North 16.1 mph - N/A   Clear
12:53 PM 54.0 °F - 28.0 °F 37% 30.27 in 10.0 mi NNE 11.5 mph 19.6 mph N/A   Clear
1:53 PM 55.9 °F - 25.0 °F 30% 30.24 in 10.0 mi North 13.8 mph - N/A   Clear
2:53 PM 57.9 °F - 25.0 °F 28% 30.22 in 10.0 mi North 15.0 mph - N/A   Clear
3:53 PM 57.9 °F - 23.0 °F 26% 30.19 in 10.0 mi North 6.9 mph 17.3 mph N/A   Clear
4:53 PM 59.0 °F - 21.9 °F 24% 30.18 in 10.0 mi Variable 6.9 mph - N/A   Clear
5:53 PM 59.0 °F - 21.9 °F 24% 30.17 in 10.0 mi North 5.8 mph - N/A   Clear
6:53 PM 57.9 °F - 26.1 °F 30% 30.19 in 10.0 mi NE 3.5 mph - N/A   Clear
7:53 PM 53.1 °F - 25.0 °F 34% 30.21 in 10.0 mi Calm Calm - N/A   Clear
8:53 PM 45.0 °F 40.6 °F 26.1 °F 48% 30.20 in 10.0 mi SE 8.1 mph - N/A   Clear
9:53 PM 42.1 °F 36.1 °F 27.0 °F 55% 30.21 in 10.0 mi SSE 10.4 mph - N/A   Clear
10:53 PM 41.0 °F 33.9 °F 27.0 °F 57% 30.21 in 10.0 mi SSE 12.7 mph - N/A   Clear
11:53 PM 37.9 °F 30.9 °F 27.0 °F 65% 30.22 in 10.0 mi South 10.4 mph - N/A   Clear